Retour au catalogue

STARLINK-32316

ActifCommunicationsVLEO
NORAD 61860·PAYLOAD·🇺🇸 United States

Lancé Nov 7, 2024 depuis Cape Canaveral Space Force Station

Loading…

Prochains Passages (prochaines 24 heures)

TLE

FraisSource: CelesTrak SupGP

Époque: Sep 15, 2026, 03:38 UTC

1 61860C 24202R   26258.15187500 -.00029668  00000+0 -10748-2 0  2583
2 61860  43.0006 244.3447 0001200 267.1496 168.0174 15.27585362    14

Suivez STARLINK-32316 en temps réel avec AllMySat

Download on the App Store